Location: Marcé
(47.5801°N, 0.3280°W)
Time: 00:26:07
(UTC+01:00)

Tiros 1 - Pass Details

Date: 09 December 2021
Orbit: 629 x 664 km, 48.4° (Epoch: 26 January)

Event Time Altitude Azimuth Distance (km) Brightness Sun altitude
Rises 18:30:25 0° 244° (WSW) 2,911 12.5 -12.9°
Reaches altitude 10° 18:32:44 10° 242° (WSW) 2,008 11.1 -13.3°
Maximum altitude 18:37:19 69° 161° (SSE) 680 7.2 -14.0°
Enters shadow 18:40:09 23° 82° (E) 1,354 8.2 -14.5°
